Change the Weather History Date:

Thursday, February 21, 2013

  Actual Average (KUIN) Record (KUIN)
Temperature  
Mean Temperature 24 °F 33 °F  
Max Temperature 28 °F 41 °F 69 °F (1930)
Min Temperature 19 °F 24 °F -5 °F (1963)
Degree Days  
Heating Degree Days 42 32  
Month to date heating degree days 740  
Since 1 July heating degree days 4126  
Cooling Degree Days 0 0  
Month to date cooling degree days 0  
Year to date cooling degree days 0  
Moisture  
Dew Point 19 °F    
Average Humidity 87    
Maximum Humidity 94    
Minimum Humidity 76    
Precipitation  
Precipitation 0.37 in 0.07 in 1.62 in (1997)
Month to date precipitation 1.33  
Year to date precipitation 2.85  
Sea Level Pressure  
Sea Level Pressure 30.16 in    
Wind  
Wind Speed 9 mph (ENE)    
Max Wind Speed 17 mph    
Max Gust Speed 25 mph    
Visibility 7 miles    
Events Rain , Snow , Thunderstorm    
T = Trace of Precipitation, MM = Missing Value Source: NWS Daily Summary

Daily Weather History Graph

Daily Weather History Graph

Search for Another Location

Airport or City:

Trip Planner

Search our weather history database for the weather conditions in past years. The results will help you decide how hot, cold, wet, or windy it might be!

Date:

Astronomy

Feb. 21, 2013 Rise Set
Actual Time 6:47 AM CST 5:46 PM CST
Civil Twilight 6:19 AM CST 6:14 PM CST
Nautical Twilight 5:48 AM CST 6:45 PM CST
Astronomical Twilight 5:17 AM CST 7:16 PM CST
Moon 2:02 PM CST (2/21) 3:51 AM CST (2/21)
Length of Visible Light 11h 54m
Length of Day
10h 59m
Waxing Gibbous, 84% of the Moon is Illuminated
Feb 21
Waxing Gibbous
Feb 25
Full
Mar 4
Last Quarter
Mar 11
New
Mar 19
First Quarter

Hourly Weather History & Observations

Time (CST) Temp. Windchill Dew Point Humidity Pressure Visibility Wind Dir Wind Speed Gust Speed Precip Events Conditions
12:15 AM 19.9 °F 13.4 °F 14.4 °F 79% 30.33 in 10.0 mi ENE 4.6 mph - N/A   Clear
12:35 AM 19.4 °F 12.8 °F 14.0 °F 80% 30.33 in 10.0 mi ENE 4.6 mph - N/A   Clear
12:55 AM 19.4 °F 12.8 °F 14.4 °F 81% 30.33 in 10.0 mi NE 4.6 mph - N/A   Clear
1:15 AM 19.4 °F 12.8 °F 14.4 °F 81% 30.33 in 10.0 mi ENE 4.6 mph - N/A   Clear
1:35 AM 19.2 °F 12.5 °F 14.4 °F 81% 30.33 in 10.0 mi ENE 4.6 mph - N/A   Clear
1:55 AM 19.4 °F 10.4 °F 14.9 °F 83% 30.32 in 10.0 mi ENE 6.9 mph - N/A   Clear
2:15 AM 19.4 °F 11.5 °F 14.9 °F 83% 30.32 in 10.0 mi NE 5.8 mph - N/A   Clear
2:35 AM 19.4 °F 10.4 °F 15.4 °F 85% 30.31 in 10.0 mi NE 6.9 mph - N/A   Clear
2:55 AM 19.2 °F 10.2 °F 15.4 °F 85% 30.31 in 10.0 mi NE 6.9 mph - N/A   Clear
3:15 AM 19.2 °F 9.3 °F 15.6 °F 86% 30.30 in 10.0 mi NE 8.1 mph - N/A   Clear
3:35 AM 19.2 °F 9.3 °F 15.8 °F 87% 30.29 in 10.0 mi NE 8.1 mph - N/A   Clear
3:55 AM 19.2 °F 9.3 °F 15.8 °F 87% 30.28 in 10.0 mi ENE 8.1 mph - N/A   Clear
4:15 AM 19.2 °F 9.3 °F 16.2 °F 88% 30.25 in 10.0 mi East 8.1 mph - N/A   Clear
4:35 AM 19.0 °F 6.8 °F 16.2 °F 89% 30.23 in 10.0 mi ENE 11.5 mph - N/A   Clear
4:55 AM 19.2 °F 8.4 °F 16.2 °F 88% 30.27 in 10.0 mi NE 9.2 mph - N/A   Clear
5:15 AM 19.2 °F 11.3 °F 16.3 °F 89% 30.28 in 10.0 mi ENE 5.8 mph - N/A   Clear
5:35 AM 19.4 °F 8.6 °F 17.6 °F 93% 30.26 in 10.0 mi NE 9.2 mph - N/A   Clear
5:55 AM 19.4 °F 7.9 °F 16.7 °F 89% 30.25 in 10.0 mi ENE 10.4 mph - N/A   Clear
6:15 AM 19.4 °F 8.6 °F 16.7 °F 89% 30.25 in 10.0 mi ENE 9.2 mph - N/A   Clear
6:35 AM 19.6 °F 8.9 °F 16.7 °F 89% 30.23 in 10.0 mi ENE 9.2 mph - N/A   Clear
6:55 AM 19.9 °F 11.1 °F 16.7 °F 87% 30.26 in 10.0 mi East 6.9 mph - N/A   Clear
7:15 AM 20.3 °F 9.8 °F 17.2 °F 88% 30.26 in 10.0 mi ENE 9.2 mph - N/A   Clear
7:35 AM 20.7 °F 10.2 °F 17.2 °F 87% 30.26 in 10.0 mi ENE 9.2 mph - N/A   Clear
7:55 AM 21.2 °F 12.6 °F 17.6 °F 86% 30.28 in 10.0 mi East 6.9 mph - N/A   Clear
8:15 AM 21.7 °F 10.2 °F 17.8 °F 85% 30.25 in 10.0 mi ENE 11.5 mph 18.4 mph N/A   Scattered Clouds
8:35 AM 22.1 °F 10.6 °F 18.1 °F 85% 30.23 in 10.0 mi East 11.5 mph 17.3 mph N/A   Mostly Cloudy
8:55 AM 22.6 °F 12.6 °F 18.5 °F 84% 30.24 in 10.0 mi East 9.2 mph 17.3 mph N/A   Mostly Cloudy
9:15 AM 23.4 °F 11.6 °F 18.5 °F 82% 30.20 in 10.0 mi ENE 12.7 mph 18.4 mph N/A   Mostly Cloudy
9:35 AM 23.7 °F 10.5 °F 18.5 °F 80% 30.21 in 10.0 mi East 16.1 mph - N/A   Mostly Cloudy
9:55 AM 23.9 °F 14.2 °F 18.7 °F 80% 30.20 in 10.0 mi East 9.2 mph - N/A Thunderstorm Overcast
10:15 AM 24.4 °F 12.4 °F 18.9 °F 79% 30.20 in 10.0 mi East 13.8 mph - N/A   Mostly Cloudy
10:35 AM 24.4 °F 13.5 °F 18.7 °F 79% 30.19 in 10.0 mi ENE 11.5 mph 16.1 mph N/A   Overcast
10:55 AM 24.4 °F 13.5 °F 18.3 °F 78% 30.17 in 10.0 mi ENE 11.5 mph 20.7 mph N/A   Overcast
11:15 AM 24.4 °F 13.0 °F 18.3 °F 78% 30.16 in 10.0 mi ENE 12.7 mph 19.6 mph N/A   Overcast
11:35 AM 24.8 °F 14.0 °F 18.3 °F 76% 30.18 in 10.0 mi East 11.5 mph 20.7 mph N/A   Overcast
11:55 AM 24.8 °F 14.0 °F 18.7 °F 78% 30.16 in 7.0 mi ENE 11.5 mph - N/A Snow Light Snow
12:15 PM 25.0 °F 12.6 °F 19.0 °F 78% 30.16 in 1.8 mi East 15.0 mph 21.9 mph N/A Snow Light Snow
12:35 PM 23.7 °F 12.6 °F 21.2 °F 90% 30.17 in 0.2 mi East 11.5 mph 16.1 mph 0.01 in Snow Heavy Snow
12:55 PM 23.7 °F 14.0 °F 21.7 °F 92% 30.16 in 0.2 mi East 9.2 mph - 0.03 in Snow Heavy Snow
1:15 PM 23.9 °F 12.9 °F 21.9 °F 92% 30.12 in 0.2 mi East 11.5 mph - 0.03 in Snow Heavy Snow
1:35 PM 23.9 °F 12.9 °F 22.1 °F 93% 30.11 in 0.2 mi ENE 11.5 mph - 0.07 in Snow Heavy Snow
1:55 PM 24.4 °F 13.0 °F 22.6 °F 93% 30.11 in 0.2 mi East 12.7 mph - 0.09 in Snow Heavy Snow
2:15 PM 24.6 °F 11.7 °F 22.6 °F 92% 30.07 in 0.2 mi ENE 16.1 mph 23.0 mph 0.02 in Snow Heavy Snow
2:35 PM 24.8 °F 11.5 °F 22.6 °F 91% 30.04 in 0.2 mi ENE 17.3 mph 23.0 mph 0.05 in Snow Heavy Snow
2:55 PM 25.2 °F 12.4 °F 23.0 °F 91% 30.03 in 0.5 mi ENE 16.1 mph 24.2 mph 0.07 in Snow Snow
3:15 PM 25.3 °F 13.1 °F 23.0 °F 91% 30.00 in 0.2 mi ENE 15.0 mph 21.9 mph 0.01 in Snow Snow
3:35 PM 25.7 °F 12.7 °F 23.7 °F 92% 29.98 in 0.5 mi ENE 17.3 mph 24.2 mph 0.02 in Snow Snow
3:55 PM 26.2 °F 14.2 °F 23.9 °F 91% 29.97 in 0.8 mi ENE 15.0 mph 21.9 mph 0.04 in Snow Light Snow
4:15 PM 26.4 °F 15.0 °F 24.3 °F 92% 29.95 in 0.8 mi East 13.8 mph 21.9 mph 0.03 in Snow Light Snow
4:35 PM 26.8 °F 15.4 °F 24.4 °F 91% 29.94 in 1.0 mi East 13.8 mph 24.2 mph 0.06 in Snow Light Snow
4:55 PM 27.1 °F 14.9 °F 24.6 °F 90% 29.92 in 1.5 mi ENE 16.1 mph 24.2 mph 0.08 in Snow Light Snow
5:15 PM 27.5 °F 16.8 °F 24.8 °F 90% 29.92 in 4.0 mi East 12.7 mph 21.9 mph N/A Snow Light Snow
5:35 PM 28.2 °F 17.2 °F 25.9 °F 91% 29.89 in 3.0 mi East 13.8 mph 25.3 mph 0.01 in Rain Light Freezing Rain
5:55 PM 28.2 °F 16.3 °F 25.7 °F 90% 29.92 in 3.0 mi East 16.1 mph 20.7 mph 0.02 in Rain Light Freezing Rain
6:15 PM 28.2 °F 17.2 °F 26.1 °F 92% 29.91 in 2.5 mi East 13.8 mph - 0.02 in Rain Light Freezing Rain
6:35 PM 28.2 °F 18.9 °F 26.2 °F 92% 29.90 in 2.5 mi East 10.4 mph 19.6 mph 0.03 in Snow Light Snow
6:55 PM 28.2 °F 17.2 °F 26.4 °F 93% 29.88 in 1.8 mi East 13.8 mph - 0.03 in Snow Light Snow
7:15 PM 28.9 °F 18.2 °F 27.3 °F 94% 29.86 in 1.5 mi East 13.8 mph 19.6 mph 0.01 in Rain Light Freezing Rain